Mankato, MN

10:49 AM CST on November 20, 2019 (GMT -0600)
Mankato Regional

Weather History for KMKT - September, 2019

Change the Weather History Date:

Monday, September 30, 2019

  Actual Average Record
Temperature  
Mean Temperature 75 °F -  
Max Temperature 88 °F 63 °F 87 °F (2002)
Min Temperature 59 °F 42 °F 30 °F (2003)
Cooling Degree Days 10    
Growing Degree Days 25 (Base 50)    
Moisture  
Dew Point 69 °F    
Average Humidity 85    
Maximum Humidity 100    
Minimum Humidity 59    
Precipitation  
Precipitation 0.00 in - - ()
Sea Level Pressure  
Sea Level Pressure 29.76 in    
Wind  
Wind Speed 13 mph ()    
Max Wind Speed 21 mph    
Max Gust Speed 26 mph    
Visibility 10.0 miles    
Events Rain , Thunderstorm    
Averages and records for this station are not official NWS values.
T = Trace of Precipitation, MM = Missing Value Source: Averaged Metar Reports

Daily Weather History Graph

Daily Weather History Graph

Search for Another Location

Airport or City:

Astronomy

Sep. 30, 2019 Rise Set
Actual Time 7:12 AM CDT 6:58 PM CDT
Civil Twilight 6:43 AM CDT 7:27 PM CDT
Nautical Twilight 6:09 AM CDT 8:01 PM CDT
Astronomical Twilight 5:35 AM CDT 8:35 PM CDT
Moon 9:20 AM CDT (9/30) 8:30 PM CDT (9/30)
Length of Visible Light 12h 44m
Length of Day
11h 46m
Waxing Crescent, 6% of the Moon is Illuminated
Sep 30
Waxing Crescent
Oct 5
First Quarter
Oct 13
Full
Oct 21
Last Quarter
Oct 27
New

Hourly Weather History & Observations

Time (CDT) Temp. Heat Index Dew Point Humidity Pressure Visibility Wind Dir Wind Speed Gust Speed Precip Events Conditions
12:56 AM 64.0 °F - 63.0 °F 96% 29.86 in 10.0 mi SSE 20.7 mph 24.2 mph N/A   Overcast
1:56 AM 66.0 °F - 64.9 °F 96% 29.84 in 10.0 mi SSE 15.0 mph 24.2 mph N/A   Overcast
2:25 AM 66.2 °F - 66.2 °F 100% 29.83 in 10.0 mi SSE 16.1 mph 23.0 mph N/A   Overcast
2:56 AM 68.0 °F - 66.9 °F 96% 29.82 in 10.0 mi SSE 12.7 mph 20.7 mph N/A   Overcast
3:56 AM 69.1 °F - 68.0 °F 96% 29.80 in 10.0 mi SSE 11.5 mph 18.4 mph N/A   Overcast
4:56 AM 71.1 °F - 70.0 °F 96% 29.78 in 10.0 mi SSE 15.0 mph - N/A   Overcast
5:56 AM 72.0 °F - 70.0 °F 93% 29.75 in 10.0 mi SSE 16.1 mph 24.2 mph N/A   Overcast
6:56 AM 73.0 °F - 71.1 °F 93% 29.73 in 10.0 mi South 13.8 mph 24.2 mph N/A   Overcast
7:56 AM 73.0 °F - 71.1 °F 93% 29.73 in 10.0 mi South 13.8 mph 19.6 mph N/A   Overcast
8:05 AM 73.4 °F - 71.6 °F 94% 29.73 in 10.0 mi South 12.7 mph 19.6 mph N/A   Overcast
8:35 AM 73.4 °F - 71.6 °F 94% 29.73 in 10.0 mi South 16.1 mph 24.2 mph N/A   Overcast
8:56 AM 73.9 °F - 72.0 °F 93% 29.74 in 10.0 mi South 11.5 mph - N/A   Overcast
9:28 AM 75.2 °F - 71.6 °F 89% 29.74 in 10.0 mi SSW 12.7 mph 19.6 mph N/A   Overcast
9:56 AM 75.9 °F - 72.0 °F 87% 29.73 in 10.0 mi South 13.8 mph 20.7 mph N/A   Overcast
10:56 AM 79.0 °F - 72.0 °F 79% 29.72 in 10.0 mi SSW 15.0 mph 25.3 mph N/A   Overcast
11:56 AM 82.9 °F 88.0 °F 72.0 °F 69% 29.71 in 10.0 mi SSW 18.4 mph 26.5 mph N/A   Overcast
12:52 PM 82.4 °F 88.2 °F 73.4 °F 74% 29.71 in 10.0 mi SSW 15.0 mph 21.9 mph N/A   Overcast
12:56 PM 82.9 °F 88.0 °F 72.0 °F 69% 29.70 in 10.0 mi SSW 16.1 mph 23.0 mph N/A   Overcast
1:56 PM 84.0 °F 89.6 °F 72.0 °F 67% 29.69 in 10.0 mi SSW 18.4 mph 24.2 mph N/A   Overcast
2:56 PM 86.0 °F 92.2 °F 72.0 °F 63% 29.69 in 10.0 mi SSW 17.3 mph 23.0 mph N/A   Overcast
3:56 PM 87.1 °F 93.6 °F 72.0 °F 61% 29.68 in 10.0 mi SSW 15.0 mph 24.2 mph N/A   Scattered Clouds
4:56 PM 87.1 °F 92.8 °F 71.1 °F 59% 29.69 in 10.0 mi SW 11.5 mph 21.9 mph N/A   Scattered Clouds
5:56 PM 86.0 °F 91.5 °F 71.1 °F 61% 29.70 in 10.0 mi SSW 11.5 mph - N/A   Partly Cloudy
6:56 PM 82.9 °F 87.5 °F 71.1 °F 67% 29.69 in 10.0 mi South 8.1 mph - N/A   Clear
7:56 PM 75.0 °F - 73.0 °F 94% 29.77 in 10.0 mi WNW 12.7 mph - 0.00 in Rain , Thunderstorm Light Rain
8:16 PM 73.4 °F - 73.4 °F 100% 29.79 in 10.0 mi WNW 11.5 mph - 0.00 in   Partly Cloudy
8:56 PM 72.0 °F - 70.0 °F 93% 29.80 in 10.0 mi WNW 12.7 mph - 0.00 in   Clear
9:11 PM 69.8 °F - 66.2 °F 88% 29.83 in 10.0 mi NW 18.4 mph 24.2 mph N/A   Mostly Cloudy
9:56 PM 66.0 °F - 64.0 °F 93% 29.85 in 10.0 mi WNW 8.1 mph - N/A   Mostly Cloudy
10:27 PM 64.4 °F - 62.6 °F 94% 29.86 in 10.0 mi NW 15.0 mph - N/A   Overcast
10:56 PM 63.0 °F - 61.0 °F 93% 29.86 in 10.0 mi NW 11.5 mph - N/A   Overcast
11:56 PM 59.0 °F - 57.9 °F 96% 29.89 in 10.0 mi NW 13.8 mph - N/A   Overcast